Regional Weather Roundup
Issued by NWS Cleveland, OH

Home | Current Version | Previous Version | Graphics & Text | Print | Product List | Glossary On
Versions: 1 2 3 4 5 6 7 8 9 10 11 12 13 14 15 16 17 18 19 20 21 22 23 24 25 26 27 28 29 30 31 32 33 34 35 36 37 38 39 40 41 42 43 44 45 46 47 48 49 50
000
ASUS41 KCLE 060910
RWRCLE
OHIO REGIONAL WEATHER ROUNDUP
NATIONAL WEATHER SERVICE WILMINGTON, OH
500 AM EDT MON JUL 06 2015

NOTE: "FAIR" INDICATES FEW OR NO CLOUDS BELOW 12,000 FEET WITH NO
SIGNIFICANT WEATHER AND/OR OBSTRUCTIONS TO VISIBILITY.

OHZ001>008-015>018-024>027-034-035-043-044-061000-
   NORTHWEST OHIO

CITY           SKY/WX    TMP DP  RH WIND       PRES   REMARKS
DEFIANCE       CLEAR     59  57  93 CALM      30.07R FOG
FINDLAY        CLEAR     63  59  87 CALM      30.06R
TOLEDO EXPRESS CLEAR     57  56  96 CALM      30.07R FOG
TOLEDO EXEC    CLEAR     62  59  90 NW3       30.07R FOG
LIMA           CLEAR     59  57  93 W3        30.08R FOG
$$

OHZ009>014-019>023-028>033-038-089-061000-
   NORTHEAST OHIO

CITY           SKY/WX    TMP DP  RH WIND       PRES   REMARKS
CLE-HOPKINS    MOCLDY    61  58  90 CALM      30.08R
CLE-LAKEFRONT  PTCLDY    67  60  78 CALM      30.05R
CUY CO. ARPT   NOT AVBL
LORAIN-ELYRIA  PTCLDY    59  57  93 S3        30.07R FOG
ASHTABULA      PTCLDY    60  59  96 CALM      30.07F FOG
AKRON-CANTON   MOCLDY    63  57  81 NE6       30.07R
WOOSTER        MOCLDY    61  59  93 CALM      30.07R FOG
MANSFIELD      PTCLDY    59  59 100 CALM      30.08R FOG
YOUNGSTOWN     CLOUDY    64  61  90 E7        30.07F
$$

OHZ042-051>053-060>062-070>072-077>081-061000-
  SOUTHWEST OHIO

CITY           SKY/WX    TMP DP  RH WIND       PRES   REMARKS
CINC-COVINGTON CLEAR     62  60  93 W3        30.07R FOG
CINC-LUNKEN    FOG       63  63 100 CALM      30.07R VSB 1
HAMILTON       CLEAR     61  60  97 CALM      30.08R FOG
DAYTON         CLEAR     63  60  90 CALM      30.07R
WRIGHT-PAT AFB CLEAR     61  60  97 E2        30.06S
DAYTON GENERAL CLEAR     62  60  93 CALM      30.06R
WILMINGTON     PTCLDY    66  60  81 N3        30.06R
$$

OHZ036-037-039>041-045>050-054>059-063>069-073>076-082>088-061000-
  CENTRAL AND SOUTHEAST OHIO

CITY           SKY/WX    TMP DP  RH WIND       PRES   REMARKS
COLUMBUS       MOCLDY    66  62  87 NW3       30.04R
OSU AIRPORT    CLEAR     64  62  93 NW3       30.06R
BOLTON FIELD   PTCLDY    63  62  96 NW6       30.05R
RICKENBACK AFB CLEAR     64  62  91 N6        30.04R
NEWARK         PTCLDY    63  61  93 CALM      30.04S
MARION         CLEAR     60  58  92 CALM      30.07R FOG
LANCASTER      CLEAR     62  60  93 CALM      30.04R FOG
ZANESVILLE     MOCLDY    66  62  87 CALM      30.04S FOG
NEW PHILLY     MOCLDY    64  63  96 CALM      30.05F
$$



USA.gov is the U.S. government's official web portal to all federal, state and local government web resources and services.